Погода в Усть-Джилинде

Россия / Республика Бурятия     53°39′48″N   111°56′37″E
темп.,
°C
ветер,
м/с
пор.,
м/с
влажн.,
%
обл.,
%
осадки,
мм/ч
давл.,
гПа
погр.,
м
20 апреля, вт
вт2023:00−3вюв114383 0.0 101216
02:00−5в11515 0.0 101010
05:00−6ссв11575 0.0 100911
08:00−3ссз124499 0.0 1008247
11:00+5зсз233727 0.0 1005685
14:00+9ююв133427 0.0 10021687
17:00+9зсз3339100 0.0 10021263
20:00+2ссв4868100 0.0 1007347
21 апреля, ср
ср2123:000в1196100 1.8 1009120
02:000ссв0187100 2.0 1009165
05:00−3ссз1386100 0.4 1010189
08:00−2с2589100 2.6 1011366
11:00+1с337099 0.8 1010944
14:00+2с4464100 0.9 10101060
17:000с6762100 0.3 1013898
20:00−3ссз61163100 0.4 1017469
22 апреля, чт
чт2223:00−5с6125393 0.0 1020551
02:00−6с51150100 0.0 1023567
05:00−9с37620 0.0 1027169
08:00−5с68390 0.0 1028979
11:00−3ссв663391 0.0 10281612
14:00−1с5531100 0.0 10291809
17:00−2ссв6634100 0.0 10301515
20:00−5св3643100 0.0 1034217
23 апреля, пт
пт2323:00−6ссв4846100 0.0 1038435
02:00−8ссв2555100 0.0 1041127
05:00−9св1159100 0.0 104410
08:00−6ссв1141100 0.0 1044496
11:00−1сз232786 0.0 10421227
14:00+2с341868 0.0 10391966
17:00+3с44185 0.0 10391837
20:00−2с2236100 0.0 104112
24 апреля, сб
сб2423:00−4сз114261 0.0 104310
02:00−6сз114798 0.0 104410
05:00−6зсз1147100 0.0 104310
08:00−2зюз123278 0.0 1042262
11:00+4юз322247 0.0 1038831
14:00+7зюз211899 0.0 10341243
17:00+7юз2219100 0.0 10311237
20:00+2зсз112955 0.0 103210